Weather in Borovoye

Kazakhstan     53°04′28″N   70°16′33″E
temp.,
°C
wind,
m/s
gust,
m/s
humid.,
%
clouds,
%
prec.,
mm/h
press.,
hPa
HPBL,
m
13 may, thu
thu1323:00+14n41154100 0.0 1023365
02:00+11nnw3666100 0.0 1024146
05:00+9nnw236581 0.0 102562
08:00+13nnw3744100 0.0 1025680
11:00+17nnw5740100 0.0 10241232
14:00+20nnw7103831 0.0 10232004
17:00+20nw61042100 0.0 10211716
20:00+18nw3849100 0.0 1021222
14 may, fri
fri1423:00+15ne3657100 0.0 1023161
02:00+13nne12685 0.0 102316
05:00+11ne22835 0.0 102620
08:00+16ne34635 0.0 1027730
11:00+19nne34455 0.0 10271467
14:00+21nne33355 0.0 10271692
17:00+22nne23345 0.0 10271668
20:00+17se11465 0.0 102711
15 may, sat
sat1523:00+15ssw22505 0.0 102712
02:00+14ssw33555 0.0 102643
05:00+13sw34605 0.0 102749
08:00+20wsw35420 0.0 1026366
11:00+24wnw33305 0.0 10251371
14:00+26wnw352830 0.0 10232815
17:00+27wnw562729 0.0 10222774
20:00+18wsw81163100 0.9 1022338
16 may, sun
sun1623:00+17wsw246671 2.1 102155
02:00+16sw2270100 0.4 102130
05:00+16wsw2266100 0.6 102124
08:00+21w365173 1.0 1020286
11:00+26nw573528 1.0 10191658
14:00+27nnw673081 0.0 10193210
17:00+26nnw673150 0.0 10182698
20:00+20n33515 0.0 101935
17 may, mon
mon1723:00+18n225236 0.0 101913
02:00+17e11575 0.0 102011
05:00+17sse00594 0.0 102011
08:00+23wnw11425 0.0 1020351
11:00+27nne12325 0.0 10191685
14:00+29n11265 0.0 10172917
17:00+28wnw12258 0.0 10162824
20:00+24ssw223540 0.0 101527